This demonstration page uses our WeatherBlox Daily Observations layout. Learn more.

Left ArrowRight Arrow

38.89511, -77.03637

Hourly Observations for May 20, 2022

Temp ( °F °C ) Dew Point ( °F °C ) Humidity (%) Winds ( mph kmh ) Pressure ( in mb ) Visibility ( mi km ) Precip ( " mm )
12:52 am 00:52 Mostly Cloudy 70 21.1 58 14.4 66 66 Calm 29.82 1010 10 16 0.00 0.00
1:52 am 01:52 Mostly Cloudy 68 20 59 15 73 73 SSW 3 6 29.80 1009 10 16 0.00 0.00
2:52 am 02:52 Cloudy 68 20 56 13.3 65 65 SW 6 9 29.83 1010 10 16 0.00 0.00
3:52 am 03:52 Cloudy 67 19.4 58 14.4 73 73 S 3 6 29.83 1010 10 16 0.00 0.00
4:52 am 04:52 Mostly Cloudy 68 20 62 16.7 81 81 S 5 7 29.84 1011 10 16 0.00 0.00
5:52 am 05:52 Sunny 69 20.6 63 17.2 81 81 Calm 29.85 1011 10 16 0.00 0.00
6:52 am 06:52 Mostly Cloudy 70 21.1 64 17.8 82 82 Calm 29.88 1012 10 16 0.00 0.00
7:52 am 07:52 Cloudy 73 22.8 64 17.8 74 74 NE 5 7 29.89 1012 10 16 0.00 0.00
8:52 am 08:52 Partly Cloudy 76 24.4 64 17.8 67 67 ESE 3 6 29.89 1012 10 16 0.00 0.00
9:52 am 09:52 Mostly Cloudy 78 25.6 65 18.3 64 64 S 5 7 29.89 1012 10 16 0.00 0.00
10:52 am 10:52 Mostly Cloudy 81 27.2 67 19.4 62 62 S 6 9 29.88 1012 10 16 0.00 0.00
11:52 am 11:52 Mostly Cloudy 83 28.3 67 19.4 59 59 SSW 7 11 29.88 1012 10 16 0.00 0.00
12:52 pm 12:52 Mostly Cloudy 85 29.4 68 20 57 57 S 12 19 29.86 1011 10 16 0.00 0.00
1:52 pm 13:52 Mostly Cloudy 84 28.9 68 20 59 59 WSW 8 13 29.88 1012 10 16 0.00 0.00
2:52 pm 14:52 Mostly Cloudy 85 29.4 69 20.6 59 59 S 10 17 29.86 1011 10 16 0.00 0.00
3:52 pm 15:52 Mostly Cloudy 86 30 70 21.1 59 59 S 7 11 29.85 1011 10 16 0.00 0.00
4:52 pm 16:52 Mostly Cloudy 88 31.1 70 21.1 55 55 S 9 15 29.83 1010 10 16 0.00 0.00
5:52 pm 17:52 Mostly Cloudy 87 30.6 69 20.6 55 55 S 13 20 29.83 1010 10 16 0.00 0.00
6:52 pm 18:52 Mostly Cloudy 85 29.4 68 20 57 57 S 10 17 29.83 1010 10 16 0.00 0.00
7:52 pm 19:52 Mostly Cloudy 85 29.4 68 20 57 57 S 9 15 29.84 1011 10 16 0.00 0.00
8:52 pm 20:52 Partly Cloudy 82 27.8 67 19.4 60 60 S 10 17 29.85 1011 10 16 0.00 0.00
9:52 pm 21:52 Mostly Clear 84 28.9 66 18.9 55 55 SSW 12 19 29.87 1012 10 16 0.00 0.00
10:52 pm 22:52 Mostly Clear 84 28.9 66 18.9 55 55 SSW 14 22 29.88 1012 10 16 0.00 0.00
11:52 pm 23:52 Mostly Cloudy 84 28.9 66 18.9 55 55 SSW 15 24 29.89 1012 10 16 0.00 0.00

Powered by AerisWeather